CAPE
0 0 nan nan nan nan 0 0 0 0 1 2 2 2 3 7 2 2 3 3 3 3 3 nan nan nan nan nan nan nan nan nan nan nan nan 0 2 2 3 4 4 4 5 4 4 4 5 7 7 9 11 13 14 14 15 17 17 20 22 24 24 29 31 36 36 38 43 44 47 47 47 44 41 41 38 40 40 40 44 47 47 47 47 47 47 51
1 1 0 nan nan nan 0 1 0 0 1 1 2 2 3 1 1 1 nan 1 1 nan nan nan nan nan nan nan nan nan nan nan nan nan nan 0 1 1 2 3 3 3 3 4 4 4 6 8 8 9 12 14 14 14 15 15 15 18 20 22 22 25 28 32 32 35 37 39 39 39 40 37 34 34 32 33 37 37 40 42 42 43 44 47 47 55
1 2 1 0 0 nan 0 0 0 0 0 1 1 1 0 nan nan nan nan nan nan nan nan nan nan nan nan nan nan nan nan nan nan nan nan 0 0 0 1 2 2 2 2 3 3 5 6 8 8 10 12 13 16 16 16 15 15 18 19 19 19 23 24 27 27 30 31 33 31 31 31 30 28 28 28 30 33 33 37 39 39 40 43 46 46 52
1 0 1 1 1 0 0 1 0 0 nan nan nan nan nan nan nan nan nan nan nan nan nan nan nan nan nan nan nan nan nan nan nan nan nan nan 0 0 0 0 0 1 2 3 3 5 6 8 8 10 13 14 17 17 17 18 18 18 18 21 21 23 24 25 25 27 27 29 27 27 26 27 27 27 29 31 33 33 35 35 35 35 39 42 42 48
0 0 1 1 1 0 nan nan nan nan nan nan nan nan nan nan nan nan nan nan nan nan nan nan nan nan nan nan nan nan nan nan nan nan nan nan nan nan nan nan nan 0 1 4 4 6 8 10 10 11 13 15 17 17 17 18 18 19 21 22 22 24 25 27 27 27 26 26 27 27 27 27 27 27 29 30 33 33 35 37 37 35 39 39 39 42
0 1 1 1 1 2 nan nan nan nan nan nan nan nan nan nan nan nan nan nan nan nan nan nan nan nan nan nan nan nan nan nan nan nan nan nan nan nan nan nan nan 1 3 5 5 7 9 10 10 12 14 14 16 16 18 19 19 22 24 26 26 28 30 29 29 29 27 27 26 26 25 25 24 24 26 25 29 29 30 35 35 34 37 37 37 42
0 1 2 1 1 0 nan nan nan nan nan nan nan nan nan nan nan nan nan nan nan nan nan nan nan nan nan nan nan nan nan nan nan nan nan nan nan nan nan 0 0 1 3 5 5 6 8 13 13 15 16 18 19 19 21 22 22 25 26 26 26 27 28 28 28 28 26 26 24 24 21 20 20 20 21 23 24 24 26 30 30 34 38 41 41 41
nan nan nan nan nan nan nan nan nan nan nan nan nan nan nan nan nan nan nan nan nan nan nan nan nan nan nan nan nan nan nan nan nan nan nan nan nan nan nan 0 0 1 4 7 7 10 13 14 14 15 15 15 16 16 15 15 15 14 13 12 12 11 14 15 15 14 13 12 13 13 13 15 16 16 17 19 19 19 23 26 26 33 42 44 44 47
nan nan nan nan nan nan nan nan nan nan nan nan nan nan nan nan nan nan nan nan nan nan nan nan nan nan nan nan nan nan nan nan nan nan nan nan nan nan nan 0 0 2 4 6 6 8 10 10 10 9 8 8 8 8 7 5 5 4 4 4 4 5 5 7 7 9 9 10 12 12 13 15 15 15 17 18 20 20 20 24 24 31 40 47 47 53
nan nan nan nan nan nan nan nan nan nan nan nan nan nan nan nan nan nan nan nan nan nan nan nan nan nan nan nan nan nan nan nan nan nan nan nan nan nan nan nan nan 0 2 4 4 5 3 3 3 2 2 1 2 2 1 0 0 0 0 0 0 1 2 5 5 7 9 10 12 12 13 15 16 16 18 18 20 20 22 24 24 27 37 46 46 53
nan nan nan nan nan nan nan nan nan nan nan nan nan nan nan nan nan nan nan nan nan nan nan nan nan nan nan nan nan nan nan nan nan nan nan nan nan nan nan nan nan nan nan nan nan nan nan nan nan nan nan nan nan nan nan nan nan nan nan nan nan 0 1 3 3 5 8 10 12 12 15 16 18 18 21 23 24 24 25 27 27 28 35 41 41 50
nan nan nan nan nan nan nan nan nan nan nan nan nan nan nan nan nan nan nan nan nan nan nan nan nan nan nan nan nan nan nan nan nan nan nan nan nan nan nan nan nan nan nan nan nan nan nan nan nan nan nan nan nan nan nan nan nan nan nan nan nan 0 1 3 3 5 8 12 15 15 16 18 19 19 23 25 29 29 29 29 29 31 34 39 39 46
nan nan nan nan nan nan nan nan nan nan nan nan nan nan nan nan nan nan nan nan nan nan nan nan nan nan nan nan nan nan nan nan nan nan nan nan nan nan nan nan nan nan nan nan nan nan nan nan nan nan nan nan nan nan nan nan nan nan nan nan nan 1 2 5 5 9 12 16 16 16 18 19 22 22 24 26 30 30 32 33 33 35 37 40 40 47
nan nan nan nan nan nan nan nan nan nan nan nan nan nan nan nan nan nan nan nan nan nan nan nan nan nan nan nan nan nan nan nan nan nan nan nan nan nan nan nan nan nan nan nan nan nan nan nan nan nan nan nan nan nan nan nan nan nan nan 1 1 3 7 9 9 13 16 18 19 19 20 22 25 25 27 29 33 33 34 36 36 36 39 40 40 44
nan nan nan nan nan nan nan nan nan nan nan nan nan nan nan nan nan nan nan nan nan nan nan nan nan nan nan nan nan nan nan nan nan nan nan nan nan nan nan nan nan nan nan nan nan nan nan nan nan nan nan nan nan nan nan nan nan nan 1 3 3 7 10 14 14 15 17 18 21 21 23 25 27 27 29 31 34 34 33 35 35 35 36 40 40 41
nan nan nan nan nan nan nan nan nan nan nan nan nan nan nan nan nan nan nan nan nan nan nan nan nan nan nan nan nan nan nan nan nan nan nan nan nan nan nan nan nan nan nan nan nan nan nan nan nan nan nan nan nan nan nan nan nan 0 3 6 6 8 12 15 15 16 18 20 20 20 24 26 29 29 31 32 33 33 33 35 35 35 36 37 37 38
nan nan nan nan nan nan nan nan nan nan nan nan nan nan nan nan nan nan nan nan nan nan nan nan nan nan nan nan nan nan nan nan nan nan nan nan nan nan nan nan nan nan nan nan nan nan nan nan nan nan nan nan nan nan nan nan nan 1 3 6 6 9 13 14 14 16 18 20 24 24 27 29 29 29 30 32 31 31 33 34 34 36 36 38 38 39
nan nan nan nan nan nan nan nan nan nan nan nan nan nan nan nan nan nan nan nan nan nan nan nan nan nan nan nan nan nan nan nan nan nan nan nan nan nan nan nan nan nan nan nan nan nan nan nan nan nan nan nan nan nan nan 0 0 1 3 6 6 8 12 15 15 18 20 23 25 25 27 27 29 29 28 28 30 30 31 34 34 34 38 38 38 39
nan nan nan nan nan nan nan nan nan nan nan nan nan nan nan nan nan nan nan nan nan nan nan nan nan nan nan nan nan nan nan nan nan nan nan nan nan nan nan nan nan nan nan nan nan nan nan nan nan nan nan nan nan nan nan nan nan 1 3 6 6 9 12 14 14 17 19 21 22 22 24 25 28 28 27 29 31 31 32 34 34 35 38 39 39 40
nan nan nan nan nan nan nan nan nan nan nan nan nan nan nan nan nan nan nan nan nan nan nan nan nan nan nan nan nan nan nan nan nan nan nan nan nan nan nan nan nan nan nan nan nan nan nan nan nan nan nan nan nan nan nan nan nan 1 3 6 6 7 9 11 11 14 15 18 19 19 20 24 27 27 25 28 32 32 34 37 37 37 36 40 40 39
nan nan nan nan nan nan nan nan nan nan nan nan nan nan nan nan nan nan nan nan nan nan nan nan nan nan nan nan nan nan nan nan nan nan nan nan nan nan nan nan nan nan nan nan nan nan nan nan nan nan nan nan nan nan nan nan nan 1 3 4 4 5 7 8 8 9 11 13 16 16 18 20 24 24 25 28 29 29 32 33 33 36 37 37 37 41
nan nan nan nan nan nan nan nan nan nan nan nan nan nan nan nan nan nan nan nan nan nan nan nan nan nan nan nan nan nan nan nan nan nan nan nan nan nan nan nan nan nan nan nan nan nan nan nan nan nan nan nan nan nan nan nan nan 1 2 3 3 4 4 5 5 6 8 11 14 14 16 17 20 20 22 24 26 26 28 29 29 31 35 37 37 39
nan nan nan nan nan nan nan nan nan nan nan nan nan nan nan nan nan nan nan nan nan nan nan nan nan nan nan nan nan nan nan nan nan nan nan nan nan nan nan nan nan nan nan nan nan nan nan nan nan nan nan nan nan nan nan nan nan 0 1 1 1 2 3 4 4 6 9 13 13 13 15 15 18 18 19 20 21 21 25 27 27 28 33 36 36 37
nan nan nan nan nan nan nan nan nan nan nan nan nan nan nan nan nan nan nan nan nan nan nan nan nan nan nan nan nan nan nan nan nan nan nan nan nan nan nan nan nan nan nan nan nan nan nan nan nan nan nan nan nan nan nan nan nan 0 0 1 1 1 2 5 5 6 8 9 11 11 13 14 15 15 17 19 19 19 25 27 27 30 34 34 34 37
nan nan nan nan nan nan nan nan nan nan nan nan nan nan nan nan nan nan nan nan nan nan nan nan nan nan nan nan nan nan nan nan nan nan nan nan nan nan nan nan nan nan nan nan nan nan nan nan nan nan nan nan nan nan nan nan nan nan 0 0 0 1 3 4 4 5 5 7 9 9 11 13 14 14 17 19 21 21 27 28 28 32 34 34 34 35
nan nan nan nan nan nan nan 0 6 6 nan nan nan nan nan nan nan nan nan nan nan nan nan nan nan nan nan nan nan nan nan nan nan nan nan nan nan nan nan nan nan nan nan nan nan nan nan nan nan nan nan nan nan nan nan nan nan nan nan 0 0 1 1 2 2 3 4 5 7 7 9 12 14 14 18 18 24 24 28 29 29 32 34 34 34 36
2 0 2 4 4 5 5 7 9 9 16 12 0 0 nan nan nan nan nan nan nan nan nan nan nan nan nan nan nan nan nan nan nan nan nan nan nan nan nan nan nan nan nan nan nan nan nan nan nan nan nan nan nan nan nan nan nan nan nan nan nan 0 0 1 1 2 3 5 7 7 9 13 15 15 17 20 26 26 29 29 29 30 33 34 34 35
1 0 0 1 1 1 3 7 9 9 14 15 16 16 8 nan nan nan nan nan nan nan nan nan nan nan nan nan nan nan nan nan nan nan nan nan nan nan nan nan nan nan nan nan nan nan nan nan nan nan nan nan nan nan nan nan nan nan nan nan nan nan 0 1 1 1 3 5 6 6 10 14 16 16 18 19 23 23 26 27 27 30 31 20 20 5
nan nan 0 0 0 1 4 8 8 8 7 9 12 12 3 nan nan nan nan nan nan nan nan 0 0 0 0 nan nan nan nan nan nan nan nan nan nan nan nan nan nan nan nan nan nan nan nan nan nan nan nan nan nan nan nan nan nan nan nan nan nan nan nan 0 0 1 3 5 7 7 10 13 16 16 17 18 20 20 23 25 25 29 23 12 12 2
nan nan nan nan nan 0 nan nan nan nan 1 2 4 4 3 nan nan nan nan nan nan nan nan 1 1 1 0 nan nan nan nan nan nan nan nan nan nan nan nan nan nan nan nan nan nan nan nan nan nan nan nan nan nan nan nan nan nan nan nan nan nan nan nan nan nan 0 2 3 5 5 8 10 11 11 13 15 16 16 19 20 20 18 7 1 1 nan
nan nan nan nan nan nan nan nan nan nan nan 1 0 0 nan nan nan nan nan nan nan nan nan 0 0 0 0 0 nan nan nan nan nan nan nan nan nan nan nan nan nan nan nan nan nan nan nan nan nan nan nan nan nan nan nan nan nan nan nan nan nan nan nan nan nan 0 1 2 3 3 4 5 7 7 8 8 12 12 14 18 18 13 1 nan nan nan
nan nan nan nan nan nan nan nan nan nan nan nan nan nan nan nan nan nan nan nan nan nan nan nan nan nan 2 0 nan nan nan nan nan nan nan nan nan nan nan nan nan nan nan nan nan nan nan nan nan nan nan nan nan nan nan nan nan nan nan nan nan nan nan nan nan nan nan 0 1 1 1 1 1 1 2 4 5 5 7 11 11 12 3 0 0 0
nan nan nan nan nan nan nan nan nan nan nan nan nan nan nan nan nan nan nan nan nan nan nan nan nan nan nan nan nan nan nan nan nan nan 1 nan nan nan nan nan nan 0 0 0 0 0 nan nan nan nan nan nan nan nan nan nan nan nan nan nan nan nan nan nan nan nan nan nan nan nan 0 0 1 1 1 3 4 4 6 9 9 15 15 0 0 1
nan nan nan nan nan nan nan nan nan nan nan nan nan nan nan nan nan nan nan nan nan nan nan nan nan nan nan nan nan nan nan nan 0 0 2 nan nan nan 0 nan nan nan nan nan nan nan nan nan nan nan nan nan nan nan nan nan nan nan nan nan nan nan nan nan nan nan nan nan nan nan nan nan nan nan nan 1 2 2 5 10 10 16 23 14 14 7
nan nan nan nan nan nan nan nan nan nan nan nan nan nan nan nan nan nan nan nan nan nan nan nan nan nan nan nan nan nan nan nan nan nan 4 nan nan nan nan nan nan nan nan nan nan nan nan nan nan nan nan nan nan nan nan nan nan nan nan nan nan nan nan nan nan nan nan nan nan nan nan nan nan nan nan nan 2 2 6 10 10 13 16 24 24 16
nan nan nan nan nan nan nan nan nan nan nan nan nan nan nan nan nan nan nan nan nan nan nan nan nan nan nan nan nan nan nan nan nan nan 5 1 0 0 nan 0 0 0 nan nan nan nan nan nan nan 1 1 nan nan nan nan nan nan nan nan nan nan nan nan nan nan nan nan nan nan nan nan nan nan nan nan nan 3 3 5 5 5 5 6 9 9 15
nan nan nan nan nan nan nan nan nan nan nan nan nan nan nan nan nan nan nan nan nan nan nan nan nan nan 1 nan nan nan nan nan nan nan 1 1 0 0 0 0 0 1 nan nan nan nan nan nan nan nan nan nan nan nan nan nan nan nan nan nan nan nan nan nan nan nan nan nan nan nan nan nan nan nan nan nan nan nan 1 2 2 1 3 5 5 10
nan nan nan nan nan nan nan nan nan nan nan nan nan nan nan nan nan nan nan nan nan nan nan nan nan nan 0 3 0 0 nan nan nan nan nan nan nan nan nan nan nan nan 1 nan nan nan nan nan nan nan nan nan nan nan nan nan nan nan nan nan nan nan nan nan nan nan nan nan nan nan nan nan nan nan nan nan nan nan nan nan nan nan 0 1 1 7
nan nan nan nan nan nan nan nan nan nan nan nan nan nan nan nan nan nan nan nan nan nan nan nan nan nan nan nan 1 1 2 nan nan nan nan nan nan nan nan nan nan nan nan nan nan nan nan nan nan nan nan nan nan nan nan nan nan nan nan nan nan nan nan nan nan nan nan nan nan nan nan nan nan nan nan nan nan nan nan nan nan nan nan nan nan nan
nan nan nan nan nan nan nan nan nan nan nan nan nan nan nan nan nan nan nan nan nan nan nan nan nan nan nan nan nan nan nan nan nan nan nan nan nan nan nan nan nan nan nan nan nan nan nan nan nan nan nan nan nan nan nan nan nan nan 0 nan nan nan nan nan nan nan nan nan nan nan nan nan nan nan nan nan nan nan nan nan nan nan nan nan nan nan
nan nan nan nan nan nan nan nan nan nan nan nan nan nan nan nan nan nan nan nan nan nan nan nan nan nan nan nan nan nan nan nan nan nan nan nan nan nan nan nan nan nan nan nan nan nan nan nan nan nan nan nan nan nan nan nan nan 2 5 nan nan nan nan nan nan nan nan nan nan nan nan nan nan nan nan nan nan nan nan nan nan nan nan nan nan nan
0 nan nan nan nan nan nan nan nan nan nan nan nan nan nan nan nan nan nan nan nan nan nan nan nan nan nan nan nan nan nan nan nan nan nan nan nan nan nan nan nan nan nan nan nan nan nan nan nan nan nan nan nan nan nan nan nan 1 2 nan nan nan 0 nan nan nan nan nan nan nan nan nan nan nan nan nan nan nan nan nan nan nan nan nan nan nan
nan nan nan nan nan nan nan 0 nan nan nan nan nan nan nan nan nan nan nan nan nan nan nan nan nan nan nan nan nan nan nan nan nan nan nan nan nan nan nan nan nan nan nan nan nan nan nan nan nan nan nan nan nan nan nan nan nan nan nan 0 0 0 nan nan nan nan nan nan nan nan nan nan nan nan nan nan nan nan nan nan nan nan nan nan nan nan
nan nan nan nan nan nan nan nan nan nan nan nan nan nan nan nan nan nan nan nan nan nan nan nan nan nan nan nan nan nan nan nan nan nan nan nan nan nan nan nan nan nan nan nan nan nan nan nan nan nan nan nan nan nan nan nan nan nan nan 0 0 nan nan nan nan nan nan nan nan nan nan nan nan nan nan nan nan nan nan nan nan nan nan nan nan nan
nan nan nan nan nan nan nan nan nan nan nan nan nan nan nan nan nan nan nan nan nan nan nan nan nan nan nan nan nan nan nan nan nan nan nan nan nan nan nan nan nan nan nan nan nan nan nan nan nan nan nan nan nan nan nan nan nan nan 0 1 1 0 nan nan nan nan nan nan nan nan nan nan nan nan nan nan nan nan nan nan nan nan nan nan nan nan
nan nan nan nan nan nan nan nan nan nan nan nan nan nan nan nan nan nan nan nan nan nan nan nan nan nan nan nan nan nan nan nan nan nan nan nan nan nan nan nan nan nan nan nan nan nan nan nan nan nan nan nan nan nan nan nan nan nan nan 0 0 0 0 0 0 nan nan nan nan nan nan nan nan nan nan nan nan nan nan nan nan nan nan nan nan nan
nan nan nan nan nan nan nan nan nan nan nan nan nan nan nan nan nan nan nan nan nan nan nan 0 0 nan nan nan nan nan nan nan nan nan nan nan nan nan nan nan nan nan nan nan nan nan nan nan nan nan nan nan nan nan nan nan nan nan nan nan nan nan nan nan nan nan nan nan nan nan nan nan nan nan nan nan nan nan nan nan nan nan nan nan nan nan
nan nan nan nan nan nan nan nan nan nan nan nan nan nan nan nan nan nan nan nan nan 1 1 nan nan nan nan nan nan nan nan nan nan nan nan nan nan nan nan nan nan nan nan nan nan nan nan nan nan nan nan nan nan nan nan nan nan nan nan nan nan nan nan nan nan nan nan nan nan nan nan nan nan nan nan nan nan nan nan nan nan nan nan nan nan nan
nan nan nan nan nan nan nan nan nan nan nan nan nan nan nan nan 9 9 nan nan nan nan nan nan nan nan nan nan nan nan nan nan nan nan nan nan nan nan nan nan nan nan nan nan nan nan nan nan nan nan nan nan nan nan nan nan nan nan nan nan nan nan nan nan nan nan nan nan nan nan nan nan nan nan nan nan nan nan 0 0 0 nan nan nan nan nan
nan nan nan nan nan nan nan nan nan nan nan nan nan nan nan nan nan nan nan nan nan nan nan nan nan nan nan nan nan nan nan nan nan nan nan nan nan nan nan nan nan nan nan nan nan nan nan nan nan 0 5 0 nan nan nan nan nan nan nan nan nan nan nan nan nan nan nan nan nan nan nan nan 0 0 nan 0 2 2 2 nan nan nan nan nan nan nan
0 nan nan nan nan nan nan nan 0 0 0 0 nan nan nan nan nan nan nan nan nan nan nan nan nan nan nan nan nan nan nan nan nan nan nan nan nan nan nan nan nan nan nan nan nan nan nan nan nan nan 2 13 3 3 nan nan nan nan nan nan nan nan nan nan nan nan 0 0 nan nan nan nan 0 0 1 1 2 2 1 nan nan nan nan nan nan nan
CIN
-0 -0 nan nan nan nan -0 -0 -0 -0 -0 -0 -0 -0 -0 -0 -1 -1 -1 -1 -1 -1 -1 nan nan nan nan nan nan nan nan nan nan nan nan -0 -0 -0 -0 -0 -0 -0 -0 -0 -0 -0 -0 -0 -0 -0 -0 -0 -0 -0 -0 -0 -0 -0 -0 -0 -0 -0 -0 -0 -0 -0 -0 -0 -0 -0 -0 -0 -0 -0 -0 -0 -0 -0 -0 -0 -0 -0 -0 -0 -0 -0
-0 -0 -0 nan nan nan -0 -0 -0 -0 -0 -0 -0 -0 -0 -0 -1 -1 nan -1 -1 nan nan nan nan nan nan nan nan nan nan nan nan nan nan -0 -0 -0 -0 -0 -0 -0 -0 -0 -0 -0 -0 -0 -0 -0 -0 -0 -0 -0 -0 -0 -0 -0 -0 -0 -0 -0 -0 -0 -0 -0 -0 -0 -0 -0 -0 -0 -0 -0 -0 -0 -0 -0 -0 -0 -0 -0 -0 -0 -0 -0
-0 -0 -0 -0 -0 nan -0 -0 -0 -0 -0 -0 -0 -0 -0 nan nan nan nan nan nan nan nan nan nan nan nan nan nan nan nan nan nan nan nan -0 -0 -0 -0 -0 -0 -0 -0 -0 -0 -0 -0 -0 -0 -0 -0 -0 -0 -0 -0 -0 -0 -0 -0 -0 -0 -0 -0 -0 -0 -0 -0 -0 -0 -0 -0 -0 -0 -0 -0 -0 -0 -0 -0 -0 -0 -0 -0 -0 -0 -0
-0 -0 -0 -0 -0 -0 -0 -0 -0 -0 nan nan nan nan nan nan nan nan nan nan nan nan nan nan nan nan nan nan nan nan nan nan nan nan nan nan -0 -0 -0 -0 -0 -0 -0 -0 -0 -0 -0 -0 -0 -0 -0 -0 -0 -0 -0 -0 -0 -0 -0 -0 -0 -0 -0 -0 -0 -0 -0 -0 -0 -0 -0 -0 -0 -0 -0 -0 -0 -0 -0 -0 -0 -0 -0 -0 -0 -0
-0 -0 -0 -0 -0 -0 nan nan nan nan nan nan nan nan nan nan nan nan nan nan nan nan nan nan nan nan nan nan nan nan nan nan nan nan nan nan nan nan nan nan nan -0 -0 -0 -0 -0 -0 -0 -0 -0 -0 -0 -0 -0 -0 -0 -0 -0 -0 -0 -0 -0 -0 -0 -0 -0 -0 -0 -0 -0 -0 -0 -0 -0 -0 -0 -0 -0 -0 -0 -0 -0 -0 -0 -0 -0
-0 -0 -0 -0 -0 -0 nan nan nan nan nan nan nan nan nan nan nan nan nan nan nan nan nan nan nan nan nan nan nan nan nan nan nan nan nan nan nan nan nan nan nan -0 -0 -0 -0 -0 -0 -0 -0 -0 -0 -0 -0 -0 -0 -0 -0 -0 -0 -0 -0 -0 -0 -0 -0 -0 -0 -0 -0 -0 -0 -0 -0 -0 -0 -0 -0 -0 -0 -0 -0 -0 -0 -0 -0 -0
-0 -0 -0 -0 -0 -1 nan nan nan nan nan nan nan nan nan nan nan nan nan nan nan nan nan nan nan nan nan nan nan nan nan nan nan nan nan nan nan nan nan -0 -0 -0 -0 -0 -0 -0 -0 -0 -0 -0 -0 -0 -0 -0 -0 -0 -0 -0 -0 -0 -0 -0 -0 -0 -0 -0 -0 -0 -0 -0 -0 -0 -0 -0 -0 -0 -0 -0 -0 -0 -0 -0 -0 -0 -0 -0
nan nan nan nan nan nan nan nan nan nan nan nan nan nan nan nan nan nan nan nan nan nan nan nan nan nan nan nan nan nan nan nan nan nan nan nan nan nan nan -0 -0 -0 -0 -0 -0 -0 -0 -0 -0 -0 -0 -0 -0 -0 -0 -0 -0 -0 -0 -0 -0 -0 -0 -0 -0 -0 -0 -0 -0 -0 -0 -0 -0 -0 -0 -0 -0 -0 -0 -0 -0 -0 -0 -0 -0 -0
nan nan nan nan nan nan nan nan nan nan nan nan nan nan nan nan nan nan nan nan nan nan nan nan nan nan nan nan nan nan nan nan nan nan nan nan nan nan nan -0 -0 -0 -0 -0 -0 -0 -0 -0 -0 -0 -0 -0 -0 -0 -0 -0 -0 -0 -0 -0 -0 -0 -0 -0 -0 -0 -0 -0 -0 -0 -0 -0 -0 -0 -0 -0 -0 -0 -0 -0 -0 -0 -0 -0 -0 -0
nan nan nan nan nan nan nan nan nan nan nan nan nan nan nan nan nan nan nan nan nan nan nan nan nan nan nan nan nan nan nan nan nan nan nan nan nan nan nan nan nan -2 -0 -0 -0 -0 -0 -0 -0 -0 -0 -0 -0 -0 -0 -0 -0 -0 -0 -0 -0 -0 -0 -0 -0 -0 -0 -0 -0 -0 -0 -0 -0 -0 -0 -0 -0 -0 -0 -0 -0 -0 -0 -0 -0 -0
nan nan nan nan nan nan nan nan nan nan nan nan nan nan nan nan nan nan nan nan nan nan nan nan nan nan nan nan nan nan nan nan nan nan nan nan nan nan nan nan nan nan nan nan nan nan nan nan nan nan nan nan nan nan nan nan nan nan nan nan nan -0 -0 -0 -0 -0 -0 -0 -0 -0 -0 -0 -0 -0 -0 -0 -0 -0 -0 -0 -0 -0 -0 -0 -0 -0
nan nan nan nan nan nan nan nan nan nan nan nan nan nan nan nan nan nan nan nan nan nan nan nan nan nan nan nan nan nan nan nan nan nan nan nan nan nan nan nan nan nan nan nan nan nan nan nan nan nan nan nan nan nan nan nan nan nan nan nan nan -0 -0 -0 -0 -0 -0 -0 -0 -0 -0 -0 -0 -0 -0 -0 -0 -0 -0 -0 -0 -0 -0 -0 -0 -0
nan nan nan nan nan nan nan nan nan nan nan nan nan nan nan nan nan nan nan nan nan nan nan nan nan nan nan nan nan nan nan nan nan nan nan nan nan nan nan nan nan nan nan nan nan nan nan nan nan nan nan nan nan nan nan nan nan nan nan nan nan -0 -0 -0 -0 -0 -0 -0 -0 -0 -0 -0 -0 -0 -0 -0 -0 -0 -0 -0 -0 -0 -0 -0 -0 -0
nan nan nan nan nan nan nan nan nan nan nan nan nan nan nan nan nan nan nan nan nan nan nan nan nan nan nan nan nan nan nan nan nan nan nan nan nan nan nan nan nan nan nan nan nan nan nan nan nan nan nan nan nan nan nan nan nan nan nan -0 -0 -0 -0 -0 -0 -0 -0 -0 -0 -0 -0 -0 -0 -0 -0 -0 -0 -0 -0 -0 -0 -0 -0 -0 -0 -0
nan nan nan nan nan nan nan nan nan nan nan nan nan nan nan nan nan nan nan nan nan nan nan nan nan nan nan nan nan nan nan nan nan nan nan nan nan nan nan nan nan nan nan nan nan nan nan nan nan nan nan nan nan nan nan nan nan nan -0 -0 -0 -0 -0 -0 -0 -0 -0 -0 -0 -0 -0 -0 -0 -0 -0 -0 -0 -0 -0 -0 -0 -0 -0 -0 -0 -0
nan nan nan nan nan nan nan nan nan nan nan nan nan nan nan nan nan nan nan nan nan nan nan nan nan nan nan nan nan nan nan nan nan nan nan nan nan nan nan nan nan nan nan nan nan nan nan nan nan nan nan nan nan nan nan nan nan -0 -0 -0 -0 -0 -0 -0 -0 -0 -0 -0 -0 -0 -0 -0 -0 -0 -0 -0 -0 -0 -0 -0 -0 -0 -0 -0 -0 -0
nan nan nan nan nan nan nan nan nan nan nan nan nan nan nan nan nan nan nan nan nan nan nan nan nan nan nan nan nan nan nan nan nan nan nan nan nan nan nan nan nan nan nan nan nan nan nan nan nan nan nan nan nan nan nan nan nan -0 -0 -0 -0 -0 -0 -0 -0 -0 -0 -0 -0 -0 -0 -0 -0 -0 -0 -0 -0 -0 -0 -0 -0 -0 -0 -0 -0 -0
nan nan nan nan nan nan nan nan nan nan nan nan nan nan nan nan nan nan nan nan nan nan nan nan nan nan nan nan nan nan nan nan nan nan nan nan nan nan nan nan nan nan nan nan nan nan nan nan nan nan nan nan nan nan nan -0 -0 -0 -0 -0 -0 -0 -0 -0 -0 -0 -0 -0 -0 -0 -0 -0 -0 -0 -0 -0 -0 -0 -0 -0 -0 -0 -0 -0 -0 -0
nan nan nan nan nan nan nan nan nan nan nan nan nan nan nan nan nan nan nan nan nan nan nan nan nan nan nan nan nan nan nan nan nan nan nan nan nan nan nan nan nan nan nan nan nan nan nan nan nan nan nan nan nan nan nan nan nan -0 -0 -0 -0 -0 -0 -0 -0 -0 -0 -0 -0 -0 -0 -0 -0 -0 -0 -0 -0 -0 -0 -0 -0 -0 -0 -0 -0 -0
nan nan nan nan nan nan nan nan nan nan nan nan nan nan nan nan nan nan nan nan nan nan nan nan nan nan nan nan nan nan nan nan nan nan nan nan nan nan nan nan nan nan nan nan nan nan nan nan nan nan nan nan nan nan nan nan nan -0 -0 -0 -0 -0 -0 -0 -0 -0 -0 -0 -0 -0 -0 -0 -0 -0 -0 -0 -0 -0 -0 -0 -0 -0 -0 -0 -0 -0
nan nan nan nan nan nan nan nan nan nan nan nan nan nan nan nan nan nan nan nan nan nan nan nan nan nan nan nan nan nan nan nan nan nan nan nan nan nan nan nan nan nan nan nan nan nan nan nan nan nan nan nan nan nan nan nan nan -0 -0 -0 -0 -0 -0 -0 -0 -0 -0 -0 -0 -0 -0 -0 -0 -0 -0 -0 -0 -0 -0 -0 -0 -0 -0 -0 -0 -0
nan nan nan nan nan nan nan nan nan nan nan nan nan nan nan nan nan nan nan nan nan nan nan nan nan nan nan nan nan nan nan nan nan nan nan nan nan nan nan nan nan nan nan nan nan nan nan nan nan nan nan nan nan nan nan nan nan -0 -0 -0 -0 -0 -0 -0 -0 -0 -0 -0 -0 -0 -0 -0 -0 -0 -0 -0 -0 -0 -0 -0 -0 -0 -0 -0 -0 -0
nan nan nan nan nan nan nan nan nan nan nan nan nan nan nan nan nan nan nan nan nan nan nan nan nan nan nan nan nan nan nan nan nan nan nan nan nan nan nan nan nan nan nan nan nan nan nan nan nan nan nan nan nan nan nan nan nan -0 -0 -0 -0 -0 -0 -0 -0 -0 -0 -0 -0 -0 -0 -0 -0 -0 -0 -0 -0 -0 -0 -0 -0 -0 -0 -0 -0 -0
nan nan nan nan nan nan nan nan nan nan nan nan nan nan nan nan nan nan nan nan nan nan nan nan nan nan nan nan nan nan nan nan nan nan nan nan nan nan nan nan nan nan nan nan nan nan nan nan nan nan nan nan nan nan nan nan nan -0 -0 -0 -0 -0 -0 -0 -0 -0 -0 -0 -0 -0 -0 -0 -0 -0 -0 -0 -0 -0 -0 -0 -0 -0 -0 -0 -0 -0
nan nan nan nan nan nan nan nan nan nan nan nan nan nan nan nan nan nan nan nan nan nan nan nan nan nan nan nan nan nan nan nan nan nan nan nan nan nan nan nan nan nan nan nan nan nan nan nan nan nan nan nan nan nan nan nan nan nan -0 -0 -0 -0 -0 -0 -0 -0 -0 -0 -0 -0 -0 -0 -0 -0 -0 -0 -0 -0 -0 -0 -0 -0 -0 -0 -0 -0
nan nan nan nan nan nan nan -9 -11 -11 nan nan nan nan nan nan nan nan nan nan nan nan nan nan nan nan nan nan nan nan nan nan nan nan nan nan nan nan nan nan nan nan nan nan nan nan nan nan nan nan nan nan nan nan nan nan nan nan nan -0 -0 -0 -0 -0 -0 -0 -0 -0 -0 -0 -0 -0 -0 -0 -0 -0 -0 -0 -0 -0 -0 -0 -0 -0 -0 -0
-0 -0 -0 -0 -0 -0 -0 -0 -0 -0 -0 -0 -46 -46 nan nan nan nan nan nan nan nan nan nan nan nan nan nan nan nan nan nan nan nan nan nan nan nan nan nan nan nan nan nan nan nan nan nan nan nan nan nan nan nan nan nan nan nan nan nan nan -0 -0 -0 -0 -0 -0 -0 -0 -0 -0 -0 -0 -0 -0 -0 -0 -0 -0 -0 -0 -0 -0 -0 -0 -0
-0 -0 -0 -0 -0 -0 -0 -0 -0 -0 -0 -0 -0 -0 -13 nan nan nan nan nan nan nan nan nan nan nan nan nan nan nan nan nan nan nan nan nan nan nan nan nan nan nan nan nan nan nan nan nan nan nan nan nan nan nan nan nan nan nan nan nan nan nan -0 -0 -0 -0 -0 -0 -0 -0 -0 -0 -0 -0 -0 -0 -0 -0 -0 -0 -0 -0 -0 -0 -0 -11
nan nan -0 -0 -0 -0 -0 -0 -0 -0 -0 -0 -0 -0 -13 nan nan nan nan nan nan nan nan -6 -6 -5 -5 nan nan nan nan nan nan nan nan nan nan nan nan nan nan nan nan nan nan nan nan nan nan nan nan nan nan nan nan nan nan nan nan nan nan nan nan -0 -0 -0 -0 -0 -0 -0 -0 -0 -0 -0 -0 -0 -0 -0 -0 -0 -0 -0 -0 -0 -0 -16
nan nan nan nan nan -3 nan nan nan nan -0 -0 -0 -0 -0 nan nan nan nan nan nan nan nan -3 -3 -3 -6 nan nan nan nan nan nan nan nan nan nan nan nan nan nan nan nan nan nan nan nan nan nan nan nan nan nan nan nan nan nan nan nan nan nan nan nan nan nan -0 -0 -0 -0 -0 -0 -0 -0 -0 -0 -0 -0 -0 -0 -0 -0 -0 -3 -16 -16 nan
nan nan nan nan nan nan nan nan nan nan nan -0 -0 -0 nan nan nan nan nan nan nan nan nan -4 -4 -4 -4 -3 nan nan nan nan nan nan nan nan nan nan nan nan nan nan nan nan nan nan nan nan nan nan nan nan nan nan nan nan nan nan nan nan nan nan nan nan nan -0 -0 -0 -0 -0 -0 -0 -0 -0 -0 -0 -0 -0 -0 -0 -0 -0 -14 nan nan nan
nan nan nan nan nan nan nan nan nan nan nan nan nan nan nan nan nan nan nan nan nan nan nan nan nan nan -7 -4 nan nan nan nan nan nan nan nan nan nan nan nan nan nan nan nan nan nan nan nan nan nan nan nan nan nan nan nan nan nan nan nan nan nan nan nan nan nan nan -0 -0 -0 -0 -0 -0 -0 -0 -0 -0 -0 -0 -0 -0 -0 -9 -24 -24 -23
nan nan nan nan nan nan nan nan nan nan nan nan nan nan nan nan nan nan nan nan nan nan nan nan nan nan nan nan nan nan nan nan nan nan -8 nan nan nan nan nan nan -6 -7 -9 -9 -9 nan nan nan nan nan nan nan nan nan nan nan nan nan nan nan nan nan nan nan nan nan nan nan nan -0 -0 -0 -0 -0 -0 -0 -0 -0 -0 -0 -0 -0 -19 -19 -16
nan nan nan nan nan nan nan nan nan nan nan nan nan nan nan nan nan nan nan nan nan nan nan nan nan nan nan nan nan nan nan nan -6 -6 -0 nan nan nan -6 nan nan nan nan nan nan nan nan nan nan nan nan nan nan nan nan nan nan nan nan nan nan nan nan nan nan nan nan nan nan nan nan nan nan nan nan -0 -0 -0 -0 -0 -0 -0 -0 -0 -0 -9
nan nan nan nan nan nan nan nan nan nan nan nan nan nan nan nan nan nan nan nan nan nan nan nan nan nan nan nan nan nan nan nan nan nan -0 nan nan nan nan nan nan nan nan nan nan nan nan nan nan nan nan nan nan nan nan nan nan nan nan nan nan nan nan nan nan nan nan nan nan nan nan nan nan nan nan nan -0 -0 -0 -0 -0 -0 -0 -0 -0 -0
nan nan nan nan nan nan nan nan nan nan nan nan nan nan nan nan nan nan nan nan nan nan nan nan nan nan nan nan nan nan nan nan nan nan -0 -7 -6 -6 nan -5 -5 -5 nan nan nan nan nan nan nan -0 -0 nan nan nan nan nan nan nan nan nan nan nan nan nan nan nan nan nan nan nan nan nan nan nan nan nan -0 -0 -0 -0 -0 -0 -0 -0 -0 -0
nan nan nan nan nan nan nan nan nan nan nan nan nan nan nan nan nan nan nan nan nan nan nan nan nan nan -10 nan nan nan nan nan nan nan -6 -14 -9 -9 -5 -5 -5 -2 nan nan nan nan nan nan nan nan nan nan nan nan nan nan nan nan nan nan nan nan nan nan nan nan nan nan nan nan nan nan nan nan nan nan nan nan -0 -0 -0 -0 -0 -0 -0 -0
nan nan nan nan nan nan nan nan nan nan nan nan nan nan nan nan nan nan nan nan nan nan nan nan nan nan -8 -0 -18 -18 nan nan nan nan nan nan nan nan nan nan nan nan -4 nan nan nan nan nan nan nan nan nan nan nan nan nan nan nan nan nan nan nan nan nan nan nan nan nan nan nan nan nan nan nan nan nan nan nan nan nan nan nan -0 -0 -0 -0
nan nan nan nan nan nan nan nan nan nan nan nan nan nan nan nan nan nan nan nan nan nan nan nan nan nan nan nan -11 -11 -8 nan nan nan nan nan nan nan nan nan nan nan nan nan nan nan nan nan nan nan nan nan nan nan nan nan nan nan nan nan nan nan nan nan nan nan nan nan nan nan nan nan nan nan nan nan nan nan nan nan nan nan nan nan nan nan
nan nan nan nan nan nan nan nan nan nan nan nan nan nan nan nan nan nan nan nan nan nan nan nan nan nan nan nan nan nan nan nan nan nan nan nan nan nan nan nan nan nan nan nan nan nan nan nan nan nan nan nan nan nan nan nan nan nan -2 nan nan nan nan nan nan nan nan nan nan nan nan nan nan nan nan nan nan nan nan nan nan nan nan nan nan nan
nan nan nan nan nan nan nan nan nan nan nan nan nan nan nan nan nan nan nan nan nan nan nan nan nan nan nan nan nan nan nan nan nan nan nan nan nan nan nan nan nan nan nan nan nan nan nan nan nan nan nan nan nan nan nan nan nan -0 -0 nan nan nan nan nan nan nan nan nan nan nan nan nan nan nan nan nan nan nan nan nan nan nan nan nan nan nan
-1 nan nan nan nan nan nan nan nan nan nan nan nan nan nan nan nan nan nan nan nan nan nan nan nan nan nan nan nan nan nan nan nan nan nan nan nan nan nan nan nan nan nan nan nan nan nan nan nan nan nan nan nan nan nan nan nan -3 -1 nan nan nan -6 nan nan nan nan nan nan nan nan nan nan nan nan nan nan nan nan nan nan nan nan nan nan nan
nan nan nan nan nan nan nan -8 nan nan nan nan nan nan nan nan nan nan nan nan nan nan nan nan nan nan nan nan nan nan nan nan nan nan nan nan nan nan nan nan nan nan nan nan nan nan nan nan nan nan nan nan nan nan nan nan nan nan nan -5 -5 -6 nan nan nan nan nan nan nan nan nan nan nan nan nan nan nan nan nan nan nan nan nan nan nan nan
nan nan nan nan nan nan nan nan nan nan nan nan nan nan nan nan nan nan nan nan nan nan nan nan nan nan nan nan nan nan nan nan nan nan nan nan nan nan nan nan nan nan nan nan nan nan nan nan nan nan nan nan nan nan nan nan nan nan nan -7 -7 nan nan nan nan nan nan nan nan nan nan nan nan nan nan nan nan nan nan nan nan nan nan nan nan nan
nan nan nan nan nan nan nan nan nan nan nan nan nan nan nan nan nan nan nan nan nan nan nan nan nan nan nan nan nan nan nan nan nan nan nan nan nan nan nan nan nan nan nan nan nan nan nan nan nan nan nan nan nan nan nan nan nan nan -3 -4 -4 -6 nan nan nan nan nan nan nan nan nan nan nan nan nan nan nan nan nan nan nan nan nan nan nan nan
nan nan nan nan nan nan nan nan nan nan nan nan nan nan nan nan nan nan nan nan nan nan nan nan nan nan nan nan nan nan nan nan nan nan nan nan nan nan nan nan nan nan nan nan nan nan nan nan nan nan nan nan nan nan nan nan nan nan nan -4 -4 -7 -10 -11 -11 nan nan nan nan nan nan nan nan nan nan nan nan nan nan nan nan nan nan nan nan nan
nan nan nan nan nan nan nan nan nan nan nan nan nan nan nan nan nan nan nan nan nan nan nan -12 -12 nan nan nan nan nan nan nan nan nan nan nan nan nan nan nan nan nan nan nan nan nan nan nan nan nan nan nan nan nan nan nan nan nan nan nan nan nan nan nan nan nan nan nan nan nan nan nan nan nan nan nan nan nan nan nan nan nan nan nan nan nan
nan nan nan nan nan nan nan nan nan nan nan nan nan nan nan nan nan nan nan nan nan -13 -5 nan nan nan nan nan nan nan nan nan nan nan nan nan nan nan nan nan nan nan nan nan nan nan nan nan nan nan nan nan nan nan nan nan nan nan nan nan nan nan nan nan nan nan nan nan nan nan nan nan nan nan nan nan nan nan nan nan nan nan nan nan nan nan
nan nan nan nan nan nan nan nan nan nan nan nan nan nan nan nan -0 -0 nan nan nan nan nan nan nan nan nan nan nan nan nan nan nan nan nan nan nan nan nan nan nan nan nan nan nan nan nan nan nan nan nan nan nan nan nan nan nan nan nan nan nan nan nan nan nan nan nan nan nan nan nan nan nan nan nan nan nan nan -11 -19 -19 nan nan nan nan nan
nan nan nan nan nan nan nan nan nan nan nan nan nan nan nan nan nan nan nan nan nan nan nan nan nan nan nan nan nan nan nan nan nan nan nan nan nan nan nan nan nan nan nan nan nan nan nan nan nan -18 -9 -9 nan nan nan nan nan nan nan nan nan nan nan nan nan nan nan nan nan nan nan nan -29 -29 nan -12 -8 -8 -10 nan nan nan nan nan nan nan
-10 nan nan nan nan nan nan nan -4 -4 -5 -4 nan nan nan nan nan nan nan nan nan nan nan nan nan nan nan nan nan nan nan nan nan nan nan nan nan nan nan nan nan nan nan nan nan nan nan nan nan nan -10 -0 -9 -9 nan nan nan nan nan nan nan nan nan nan nan nan -25 -22 nan nan nan nan -23 -23 -17 -11 -9 -9 -9 nan nan nan nan nan nan nan
Wind_Speed
2 2 2 3 3 3 3 4 4 4 3 3 2 2 2 3 3 3 5 6 6 5 5 5 5 6 6 7 8 9 10 10 11 11 11 12 12 12 12 12 12 12 12 12 12 12 12 12 12 12 12 12 12 12 12 12 12 12 12 12 12 12 12 13 13 13 14 14 14 14 14 14 13 13 14 14 14 15 15 15 15 16 16 16 16 16
2 1 1 2 3 3 3 4 4 4 3 3 3 3 3 3 3 3 4 6 6 6 5 5 5 5 4 4 6 8 9 10 10 11 11 12 12 12 12 13 13 13 13 12 12 12 12 12 12 12 11 11 11 11 11 11 11 11 11 12 12 12 12 13 13 13 14 14 14 14 14 14 14 14 14 14 15 15 15 16 16 16 16 16 16 17
1 1 1 2 2 2 2 3 4 3 3 3 3 3 4 4 4 4 4 5 5 5 4 4 3 3 2 2 4 7 8 9 10 11 12 12 12 13 13 13 13 13 13 12 12 12 11 11 11 11 11 11 11 11 11 11 11 11 11 11 12 12 12 13 13 13 14 14 14 14 14 14 14 14 14 15 15 15 16 16 16 16 16 16 17 17
1 1 2 1 1 2 2 3 3 3 3 3 4 4 4 4 4 4 3 3 3 2 2 2 2 2 2 1 3 5 8 9 10 11 12 12 12 13 13 13 13 13 12 12 11 11 11 11 10 10 10 10 10 10 11 11 11 11 11 12 12 12 12 13 13 13 13 13 14 14 14 14 14 14 15 15 15 16 16 16 16 16 17 17 17 17
1 1 2 1 1 1 1 2 3 3 3 4 4 4 4 4 3 3 2 2 1 1 1 1 1 1 1 1 2 4 7 9 10 11 11 12 12 13 13 13 13 12 12 11 11 11 10 10 10 10 10 10 10 10 11 11 11 11 12 12 12 12 12 13 13 13 13 13 13 13 13 14 14 14 15 15 15 16 16 16 16 16 17 17 17 17
1 1 2 2 2 2 2 2 2 3 3 3 3 3 3 2 2 1 1 1 1 0 0 1 1 1 1 2 2 5 7 8 10 10 11 12 13 13 13 13 12 12 12 11 11 11 10 10 10 10 10 10 11 11 11 11 11 12 12 12 12 12 12 12 12 12 12 13 13 13 13 14 14 14 15 15 15 15 16 16 16 16 17 17 17 17
1 2 2 2 1 1 1 2 2 3 2 2 2 1 1 0 0 1 1 1 1 0 0 1 1 1 1 1 2 4 5 7 8 9 10 12 12 13 13 12 12 12 12 11 11 11 10 10 10 10 10 10 11 11 11 11 12 12 12 12 12 12 12 12 12 12 12 12 13 13 13 14 14 14 14 15 15 15 15 16 16 16 17 17 17 17
2 1 1 1 1 1 1 1 2 2 2 2 1 1 0 1 1 1 0 0 0 0 0 0 0 0 0 1 1 2 3 4 5 6 8 9 10 11 11 12 12 12 11 11 11 10 10 10 10 10 10 11 11 11 12 12 12 12 12 12 12 12 12 12 12 12 12 12 12 13 13 13 14 14 14 14 14 15 15 15 16 16 17 17 17 18
1 1 1 1 1 1 1 1 1 1 1 1 2 1 1 0 1 1 1 1 0 0 1 0 0 1 1 1 1 1 2 2 3 4 5 5 6 7 9 10 11 11 11 11 11 10 10 10 10 11 11 11 12 12 12 12 12 12 12 12 12 12 12 12 12 12 12 12 12 12 13 13 13 13 14 14 14 15 15 15 16 16 17 17 18 18
1 1 1 1 1 1 1 0 1 1 0 1 2 2 2 1 1 1 1 1 1 1 0 0 0 1 1 1 1 1 2 3 5 6 7 7 7 8 9 9 9 10 11 11 10 10 11 11 11 11 12 12 12 13 13 12 12 12 12 12 12 12 12 12 12 12 12 12 12 12 12 13 13 13 14 14 14 15 15 15 16 16 17 18 18 18
1 1 1 1 1 1 1 0 0 0 1 2 2 1 1 1 2 1 1 1 1 1 1 0 0 1 1 1 1 1 1 2 4 5 7 8 9 10 10 9 9 9 10 10 10 11 11 11 12 12 13 13 13 13 13 12 12 13 13 12 12 12 12 12 12 12 12 12 12 12 13 13 13 14 14 14 15 15 16 16 16 17 17 18 18 19
1 1 1 1 1 1 1 1 1 1 2 2 1 1 1 1 1 2 2 2 1 1 1 1 1 0 1 1 1 1 1 2 2 3 4 5 5 6 6 6 6 7 8 8 9 10 11 12 12 12 12 12 13 13 13 13 13 13 13 13 13 12 12 12 12 12 12 12 13 13 13 14 14 14 15 15 16 16 16 17 17 17 18 18 18 19
1 1 1 1 1 1 0 0 1 1 1 1 1 1 2 1 1 1 2 2 1 1 0 1 1 1 1 1 1 1 1 1 2 2 2 2 2 2 2 3 3 3 4 4 5 6 8 10 11 11 12 12 12 13 13 13 13 13 13 13 13 13 13 13 13 13 13 13 13 14 14 15 15 15 16 16 16 17 17 17 18 18 18 18 19 19
0 0 0 0 0 0 0 0 0 1 1 1 2 2 2 1 1 1 1 1 1 0 0 0 1 1 2 1 1 1 1 1 1 2 2 2 2 1 1 2 3 3 2 3 3 4 6 7 7 8 10 10 11 12 12 13 13 14 13 13 13 13 13 13 13 13 14 14 14 15 15 16 16 16 17 17 17 17 17 18 18 18 18 18 19 19
1 1 1 1 1 1 1 1 1 1 2 1 1 1 1 1 1 1 1 1 0 1 1 1 1 1 2 2 1 1 0 1 1 2 2 2 2 1 1 2 3 3 2 3 3 4 5 5 4 4 6 7 8 9 11 12 13 13 13 13 13 13 13 14 14 14 14 15 15 15 16 16 16 17 17 17 17 17 18 18 18 18 18 18 19 19
1 1 1 1 1 1 1 1 1 1 1 1 0 1 1 1 1 1 2 1 1 1 2 2 2 2 2 2 2 1 0 1 1 2 3 3 2 1 1 2 3 3 3 3 3 3 3 3 3 4 5 7 10 12 13 13 13 13 13 13 14 14 14 14 14 15 15 15 16 16 16 16 17 17 17 17 17 17 18 18 18 18 18 19 19 19
1 1 1 1 1 1 1 1 1 1 1 0 0 1 1 1 1 1 1 1 1 1 1 1 1 2 2 2 2 1 0 1 2 3 3 3 3 2 1 1 2 3 4 3 3 3 3 3 3 4 4 8 10 12 13 13 13 14 14 14 14 14 14 14 15 15 15 16 16 16 16 16 17 17 17 17 17 17 18 18 18 18 19 19 19 19
1 1 1 1 1 1 1 0 0 0 0 1 1 1 1 1 1 1 1 1 1 1 1 1 0 1 2 2 2 2 1 1 2 3 4 4 3 2 1 1 2 3 3 3 3 3 3 3 3 4 6 9 12 13 13 14 14 14 14 14 14 14 14 15 15 15 16 16 16 16 16 16 17 17 17 17 17 17 18 18 18 18 19 19 19 19
0 0 1 1 1 1 0 1 1 1 1 1 1 1 1 1 1 2 2 1 1 1 0 0 1 1 1 2 3 2 1 1 2 3 4 5 4 3 1 1 2 3 3 3 3 3 3 3 5 7 9 11 13 13 14 14 14 14 14 14 14 15 15 15 15 16 16 16 16 16 16 16 16 16 17 17 17 17 17 18 18 18 19 19 19 19
1 1 0 0 0 1 1 1 1 1 0 1 1 2 1 1 2 2 1 1 1 1 1 1 1 2 2 2 3 2 1 2 3 3 4 4 4 3 2 1 2 3 3 3 3 3 3 3 4 6 9 11 12 13 14 14 14 14 14 15 15 15 15 15 15 15 16 16 16 16 16 16 16 16 17 17 17 17 17 18 18 18 19 19 19 19
1 1 1 0 1 1 1 0 1 0 1 1 2 2 1 1 1 1 1 0 0 0 0 1 1 2 2 2 3 3 2 3 3 3 3 3 3 3 2 1 2 2 3 3 3 3 2 3 3 4 6 10 12 13 14 14 14 14 15 15 15 15 15 15 15 15 15 15 15 16 16 16 16 16 17 17 17 17 18 18 18 18 18 19 19 19
1 1 1 0 1 1 1 1 2 1 2 2 2 2 1 1 1 0 1 0 0 0 1 1 2 2 2 3 3 3 2 2 2 2 3 3 3 3 2 1 1 2 3 3 3 2 2 2 3 4 7 10 13 14 14 14 14 14 14 14 15 15 15 15 15 15 15 15 16 16 16 16 17 17 17 17 17 17 18 18 18 18 18 18 19 19
2 1 1 1 1 2 2 2 2 2 2 2 3 3 3 3 2 2 2 2 1 1 2 2 3 2 2 3 3 3 2 2 2 1 2 3 3 3 2 1 1 2 3 3 3 3 2 3 3 4 7 11 13 14 14 14 14 14 14 14 14 14 14 15 15 15 15 16 16 16 17 17 17 17 17 17 17 17 18 18 18 18 18 18 19 19
2 1 1 2 2 2 2 2 2 2 2 2 3 3 4 3 3 3 3 2 2 1 1 2 3 3 3 3 3 3 3 2 1 1 1 2 3 3 2 1 2 3 4 3 3 3 3 4 4 4 5 9 11 13 13 13 13 13 13 13 14 14 14 15 15 16 16 17 17 17 17 17 17 17 17 17 17 17 17 18 18 18 18 18 18 19
1 0 1 1 2 2 2 2 2 2 3 2 2 3 3 3 2 2 2 2 1 1 2 3 3 3 3 3 3 2 3 1 1 2 1 2 3 3 2 1 2 3 4 4 3 3 3 4 4 4 4 6 9 11 12 12 12 12 12 13 13 14 15 16 16 17 17 17 17 17 17 17 17 17 17 17 17 17 18 18 18 18 18 18 18 18
3 2 3 3 4 5 5 6 5 4 3 2 2 2 2 2 1 1 0 0 1 1 2 3 3 3 3 2 2 2 3 2 0 1 1 1 2 3 2 2 2 3 4 4 3 3 4 5 4 4 3 4 6 8 10 11 11 12 12 13 14 15 16 16 17 17 17 17 17 17 17 17 17 17 17 17 17 17 18 18 18 18 18 18 17 17
8 8 8 8 8 8 8 8 8 8 8 6 4 2 1 1 1 0 1 1 1 1 1 2 3 3 3 2 2 2 3 2 1 1 2 1 2 3 3 2 2 3 4 4 4 4 5 5 5 4 3 3 3 5 7 9 10 12 13 14 15 16 16 17 17 17 17 17 17 17 17 17 17 17 17 17 17 17 18 18 18 18 18 17 15 13
10 10 9 9 9 8 8 8 8 8 8 8 7 6 3 0 0 1 2 1 1 1 1 3 3 3 3 2 2 2 2 2 2 1 1 0 1 2 3 2 2 3 4 5 5 5 6 5 4 4 3 2 2 2 4 7 10 11 13 14 15 16 16 16 16 16 17 17 17 17 17 17 17 17 17 17 17 18 18 18 18 17 16 13 10 7
9 9 9 9 9 8 8 7 7 8 8 8 7 6 4 1 0 1 2 1 0 1 2 3 3 3 3 3 3 2 2 2 2 1 1 1 1 2 2 2 2 3 3 4 5 4 3 3 3 2 2 2 1 1 3 6 8 9 11 13 14 15 15 16 16 16 16 16 17 17 17 17 17 17 17 18 18 18 18 18 18 16 12 9 7 6
5 6 6 7 7 7 6 5 5 6 7 8 7 6 3 1 1 1 1 1 0 1 2 3 3 3 3 3 3 3 2 3 2 1 1 1 1 2 2 2 3 3 3 4 4 4 3 2 2 1 1 2 2 2 3 4 5 6 7 9 11 12 13 15 15 16 16 16 17 17 17 17 17 17 18 18 18 18 18 19 17 13 8 7 6 5
3 3 3 4 4 4 3 3 3 4 5 6 5 4 2 1 2 2 1 1 1 1 2 3 3 3 3 3 2 2 2 3 2 1 2 2 2 2 2 2 3 2 2 2 3 4 5 3 2 1 1 2 3 4 4 4 4 4 4 5 6 8 11 13 14 14 15 16 16 17 17 17 17 18 18 18 18 19 19 19 16 12 7 6 5 5
2 3 3 3 3 3 3 3 2 2 3 3 3 2 0 1 2 2 2 2 2 2 2 2 2 3 3 3 3 2 2 2 2 2 2 2 2 2 1 2 3 3 2 2 2 3 4 4 3 3 3 4 4 4 4 4 4 4 4 4 4 5 9 11 12 12 12 14 15 16 16 17 17 18 18 18 18 19 19 19 16 13 8 6 6 6
2 3 3 3 3 3 2 2 2 2 2 2 2 1 1 0 0 1 1 2 2 2 2 2 2 2 3 3 3 3 3 2 3 4 4 2 2 2 2 3 3 3 3 2 2 3 4 5 5 5 5 5 4 4 4 4 4 4 4 4 4 5 7 8 8 8 9 11 12 13 14 15 16 17 17 18 18 18 18 18 17 14 10 7 6 6
3 3 3 3 3 3 3 2 2 2 2 2 1 1 1 1 1 1 1 0 1 1 2 1 1 2 2 3 3 4 3 3 4 5 5 3 2 3 3 3 4 4 4 3 3 3 4 5 6 6 6 5 5 4 4 4 4 4 3 3 4 4 5 5 5 6 7 7 7 8 9 10 12 13 15 15 16 17 17 18 18 17 15 11 9 7
3 3 3 3 3 3 3 3 2 2 2 1 1 1 1 0 0 0 1 0 0 0 1 1 1 1 2 3 3 4 4 3 4 5 5 3 3 3 3 3 3 3 4 4 4 4 4 5 6 7 7 7 6 4 3 3 4 3 3 4 4 4 4 4 5 5 6 6 6 6 6 6 7 8 10 12 14 15 17 18 18 19 19 16 14 11
2 3 3 2 2 2 2 2 2 2 2 2 1 1 1 1 0 0 0 0 1 1 2 2 2 2 2 3 4 4 5 4 4 5 5 4 3 3 3 3 3 3 4 4 4 4 4 5 7 7 8 8 7 6 4 3 3 3 3 4 4 5 5 5 5 5 5 5 5 5 5 5 5 6 7 11 14 16 17 18 19 19 19 19 18 15
2 2 2 2 1 1 2 2 2 2 2 2 1 1 1 1 1 1 1 1 1 2 3 3 3 3 4 4 4 4 5 4 5 5 5 4 3 3 4 4 4 4 4 4 5 5 5 6 7 7 7 7 6 6 5 5 4 4 5 4 5 5 5 5 5 5 4 5 5 5 5 5 5 6 7 11 13 14 16 17 17 18 19 19 19 18
1 2 2 2 1 1 1 1 2 2 2 1 1 1 1 1 1 1 1 2 2 2 3 3 3 4 6 7 7 6 6 6 6 6 6 5 4 4 5 5 5 5 4 5 5 5 6 6 7 7 6 6 7 7 7 7 7 6 6 6 5 5 5 5 5 4 4 5 6 7 7 6 6 6 6 8 8 8 9 9 11 13 15 15 16 18
2 2 2 2 2 1 1 2 2 2 1 1 2 2 2 2 2 2 2 2 2 3 3 3 3 4 5 6 7 8 8 7 7 7 6 5 5 5 5 5 6 5 5 5 5 5 6 6 6 6 6 7 7 7 7 7 7 8 8 8 7 6 5 4 4 4 4 5 6 7 7 6 6 5 5 5 5 5 6 6 7 8 9 8 10 13
2 1 2 2 1 1 1 2 1 1 2 2 3 3 3 3 3 3 3 3 3 3 3 3 4 4 4 5 6 7 7 6 6 6 5 5 5 5 5 6 6 6 6 5 5 5 6 6 7 7 8 7 7 8 7 7 8 8 9 8 7 6 5 5 5 5 4 5 5 6 5 5 5 5 6 5 5 5 5 5 6 6 7 6 6 7
2 1 1 1 1 1 1 1 1 2 2 2 2 2 2 2 2 2 2 2 2 2 3 3 4 4 4 4 5 5 6 6 6 6 5 6 6 6 6 6 6 6 6 6 6 6 6 7 7 8 8 8 9 9 9 9 10 10 11 9 8 8 8 8 7 6 5 5 4 5 5 6 7 7 7 7 6 6 6 6 6 7 7 6 5 5
3 2 1 1 1 1 2 2 3 3 2 2 2 2 2 2 2 2 2 2 2 2 2 2 3 4 4 4 4 4 5 5 6 7 7 7 7 7 6 6 6 5 6 6 6 6 7 7 8 8 8 8 8 9 9 9 10 10 9 9 10 10 10 9 6 4 4 4 4 5 6 6 6 6 7 7 7 6 7 7 8 9 8 6 6 6
2 2 2 1 1 1 2 3 3 3 2 2 2 2 2 2 2 2 3 3 3 3 3 3 3 4 5 5 4 4 4 5 6 7 7 7 7 7 7 7 7 6 5 5 6 7 7 8 8 8 8 8 8 9 10 10 10 9 9 9 9 9 7 6 5 4 4 5 6 6 6 6 6 7 7 7 7 7 7 8 10 11 10 8 7 6
2 2 2 1 1 1 2 2 2 2 2 2 2 2 2 2 3 3 3 3 3 3 3 3 3 4 5 5 5 4 4 3 4 5 6 7 7 7 7 7 7 7 6 5 6 6 7 8 8 8 8 8 8 9 10 10 10 9 9 9 9 9 8 7 7 7 7 7 6 6 6 6 6 7 7 7 7 7 6 7 7 8 9 8 8 8
2 1 1 1 1 2 2 2 3 3 3 3 3 3 3 3 3 3 3 3 3 3 3 3 3 3 4 4 4 4 4 3 3 3 4 6 8 8 7 7 6 6 6 6 6 6 6 7 8 8 7 7 8 9 10 10 10 10 10 10 9 9 9 9 8 9 8 8 7 7 6 6 6 7 7 7 7 7 7 7 7 7 7 7 7 7
0 1 1 2 2 2 3 3 3 3 3 3 3 3 3 3 3 3 3 3 3 3 3 3 3 3 4 5 5 5 5 4 4 3 3 4 5 5 6 6 6 6 6 6 7 7 7 8 8 8 8 8 9 9 10 10 10 10 10 10 9 9 9 9 8 8 8 8 8 8 7 6 6 7 8 8 8 8 7 7 7 8 7 7 7 7
1 2 2 2 2 3 3 3 3 3 3 3 3 3 3 3 3 3 3 3 3 3 3 3 3 4 5 5 5 5 5 6 5 4 4 3 3 4 4 5 6 6 6 6 7 8 8 8 8 8 8 9 9 10 10 9 9 9 10 9 9 9 8 8 8 8 8 8 8 7 6 6 7 8 9 9 9 8 7 7 7 7 7 7 7 7
2 2 2 2 3 3 3 3 3 3 3 4 4 3 3 3 3 3 3 2 2 3 3 3 3 4 5 5 5 5 6 6 6 5 5 4 4 4 4 4 4 5 6 7 8 8 9 9 9 9 9 9 10 10 10 9 9 9 9 9 9 9 9 9 8 8 8 8 8 7 6 6 7 9 9 9 9 8 7 7 7 7 7 7 7 7
2 2 2 3 3 3 3 3 4 4 4 4 4 3 3 4 5 5 3 2 2 2 3 4 4 5 5 5 5 6 7 7 6 5 5 4 4 4 3 3 4 4 5 5 6 7 7 9 10 10 10 10 10 11 11 10 9 9 9 8 8 8 9 9 9 8 8 8 8 8 6 7 8 8 8 9 9 9 9 8 8 8 7 7 7 7
2 2 2 3 3 3 4 4 4 4 4 5 4 4 3 3 3 3 3 3 2 3 3 4 5 5 6 6 6 6 6 6 6 5 4 4 4 4 4 4 4 4 5 4 4 4 5 5 7 9 10 11 11 11 10 10 9 9 8 8 8 8 8 8 8 7 7 8 8 8 7 7 7 7 6 8 9 10 10 10 9 8 7 7 7 7
3 3 3 3 3 4 4 4 4 5 5 5 5 5 4 3 3 2 2 2 3 3 3 4 5 5 6 6 7 6 6 6 6 6 5 4 4 4 4 4 4 5 5 5 5 4 4 4 4 5 7 10 12 11 9 8 8 8 8 7 7 7 7 7 7 7 8 8 7 7 6 6 6 6 6 7 9 10 10 10 10 9 8 7 7 7
Wind_Direction
61 77 91 108 115 124 138 145 148 151 162 170 183 198 216 217 213 210 215 219 223 226 229 228 226 228 238 255 268 278 286 292 295 297 298 298 298 298 297 296 295 294 293 293 293 292 292 292 291 291 290 290 290 290 290 290 290 290 290 290 290 290 289 289 289 289 290 290 291 292 294 295 296 296 296 296 295 295 294 292 291 289 287 286 285 284
82 86 96 116 125 133 151 161 164 166 170 177 185 195 205 216 219 219 220 221 219 217 215 214 210 208 211 238 268 283 290 294 296 297 298 298 299 298 298 297 296 296 295 294 294 293 292 292 291 291 291 291 290 290 290 290 290 289 289 289 289 288 288 289 289 289 289 290 291 291 292 293 293 292 291 290 289 288 287 286 285 285 283 283 283 282
117 118 133 139 143 150 159 171 177 179 178 183 190 196 201 211 217 221 221 219 214 207 202 196 192 190 196 226 273 288 292 294 296 297 298 298 299 299 299 298 298 298 297 296 295 294 293 293 292 292 291 291 291 291 290 290 290 289 289 288 288 288 287 288 287 287 287 288 288 288 289 288 288 287 286 285 284 283 283 283 283 283 283 283 283 283
130 141 153 153 160 171 173 176 181 187 192 196 200 203 204 211 217 220 216 207 198 191 188 179 176 177 187 217 268 285 290 293 294 296 297 299 300 301 301 301 301 300 300 299 298 297 296 296 295 294 294 293 293 292 291 291 290 289 288 287 286 285 285 284 284 284 284 284 284 284 285 284 284 283 283 282 282 282 283 283 284 284 284 283 283 283
143 150 155 160 174 184 188 179 185 192 201 205 207 208 209 212 214 212 203 184 174 172 187 178 176 178 187 200 258 280 287 291 295 297 299 301 303 304 304 304 303 302 302 301 301 300 299 299 299 298 297 296 295 294 293 292 291 289 287 286 284 283 281 281 280 280 280 281 282 282 282 282 282 282 282 282 282 282 283 283 284 284 283 283 283 282
161 166 164 170 177 180 182 185 191 197 203 208 211 210 210 208 202 190 172 162 161 175 217 210 198 193 193 205 255 277 286 293 297 300 302 303 305 305 306 305 304 304 303 302 302 301 300 300 300 299 299 298 298 297 296 295 294 292 290 288 287 285 282 282 281 281 281 282 282 282 282 281 281 281 281 281 281 282 282 282 282 283 283 283 282 282
166 173 168 175 174 172 170 183 193 197 197 202 204 204 207 187 154 142 148 154 165 181 232 242 233 215 205 225 260 278 290 296 300 301 302 304 305 305 305 305 304 303 302 301 300 300 300 299 300 301 301 302 303 303 303 302 302 301 299 297 295 293 290 288 287 285 284 283 282 282 281 280 280 280 280 280 280 280 281 281 282 282 283 283 283 283
159 172 172 172 166 163 158 180 192 194 183 172 162 143 38 14 9 16 25 66 141 168 194 245 265 271 251 254 273 284 288 293 294 296 298 299 300 301 302 302 303 303 302 301 301 301 301 302 303 306 308 309 310 311 312 311 310 309 308 305 303 301 297 294 291 289 286 284 283 282 281 280 280 280 280 280 280 280 281 281 282 282 283 283 283 283
145 158 168 162 155 149 146 192 226 215 166 142 136 134 127 29 345 345 355 353 359 167 160 181 262 293 301 301 291 276 269 273 277 284 291 291 293 296 299 301 303 304 305 305 306 307 308 310 311 313 315 315 316 315 315 314 313 312 310 308 305 302 299 296 293 290 287 285 284 283 282 281 281 281 281 281 281 281 281 282 282 282 282 282 283 283
104 116 130 119 120 122 133 195 271 301 66 107 116 127 142 158 192 286 317 315 319 338 72 135 181 256 294 308 306 290 277 283 291 297 302 303 304 305 305 308 310 312 313 315 317 318 319 318 318 318 318 317 316 315 314 313 312 310 308 306 303 300 298 295 292 290 288 286 285 284 283 282 282 282 281 281 281 281 281 281 281 282 282 282 283 283
54 54 57 35 35 54 94 149 217 24 60 71 73 79 122 165 184 204 244 272 293 317 346 22 174 191 265 301 304 298 289 292 297 302 307 308 309 310 311 315 318 321 324 326 328 328 326 323 321 319 317 316 315 313 312 311 309 308 306 303 301 299 297 294 292 290 288 286 285 284 283 282 282 281 281 281 281 280 280 280 281 281 281 281 282 282
44 38 37 26 23 21 16 9 26 46 66 71 59 359 296 231 191 185 200 222 246 276 304 315 311 245 210 252 276 289 291 291 293 298 304 307 310 313 316 320 325 329 332 334 334 332 328 324 320 318 316 314 312 311 309 308 307 305 303 301 299 297 295 293 291 289 287 286 285 284 283 283 282 282 281 280 280 280 279 279 279 279 279 280 280 280
33 38 44 32 14 359 359 17 31 42 69 120 185 226 245 240 187 156 166 189 205 224 253 323 322 306 262 237 242 262 282 287 289 294 302 305 310 318 325 327 328 329 332 334 330 325 323 320 317 314 312 310 308 307 306 305 303 302 301 299 297 295 293 291 290 288 287 286 285 285 284 284 283 282 281 280 280 279 278 278 277 277 277 277 278 278
24 57 82 86 272 264 238 165 162 186 207 204 205 209 214 189 122 116 128 157 192 215 135 73 321 305 290 272 253 240 266 292 301 305 309 299 294 296 319 317 313 314 318 319 312 306 306 311 311 309 306 304 303 303 301 301 300 299 297 296 295 293 292 291 290 288 288 287 286 285 285 284 283 283 282 281 280 280 279 278 278 278 277 277 277 278
196 176 169 192 215 231 226 185 187 206 222 218 211 181 120 83 80 90 99 84 359 351 39 33 353 318 300 289 280 271 333 315 315 314 312 299 284 268 278 307 307 305 307 304 297 293 296 300 297 292 291 293 293 293 295 296 296 296 296 295 295 294 293 292 291 290 289 288 288 287 286 285 285 284 284 283 282 282 281 281 280 280 279 279 278 278
195 180 180 193 211 230 239 198 194 209 226 236 190 84 90 80 76 79 90 77 19 10 32 20 360 333 312 300 296 299 359 325 312 309 309 300 289 270 245 302 303 300 298 293 288 287 290 288 281 277 279 284 288 291 293 295 296 296 296 296 296 296 296 295 294 293 292 291 290 289 289 288 288 287 287 286 285 285 284 283 283 282 281 280 280 279
187 170 166 173 202 238 252 229 211 207 212 78 53 73 90 98 99 92 90 77 48 36 39 32 360 329 313 312 307 299 297 318 308 304 304 298 292 282 242 283 291 293 293 288 284 282 284 282 279 277 275 281 286 291 295 296 297 298 298 298 299 299 299 298 298 297 296 295 294 293 292 292 291 290 289 288 287 287 286 285 284 283 282 281 280 280
164 147 140 152 194 233 252 264 273 321 87 67 58 57 58 65 76 85 88 81 72 59 41 40 315 287 299 302 295 286 267 321 318 312 307 301 295 288 260 262 276 282 285 284 280 276 272 270 269 270 274 286 291 294 298 299 300 299 300 300 301 302 302 301 301 300 299 298 297 295 294 293 292 291 290 289 288 287 286 285 284 283 282 281 280 280
120 125 125 162 197 238 330 4 7 19 47 62 69 62 48 36 45 61 71 85 100 118 143 236 259 264 268 273 274 273 254 351 336 320 309 302 299 295 288 276 275 279 279 278 275 269 264 262 265 271 278 289 294 297 299 300 300 301 301 302 303 303 304 303 302 301 300 298 297 296 295 294 293 292 290 290 289 287 286 285 284 283 282 281 280 280
55 29 32 170 120 55 27 7 360 14 89 109 97 84 70 41 38 43 48 70 114 143 151 192 256 265 262 269 276 286 323 359 348 324 303 297 295 293 286 270 270 274 277 273 267 260 256 257 266 276 284 290 295 298 299 300 301 302 302 304 304 304 304 303 302 301 300 299 298 297 296 295 295 294 293 292 291 290 289 288 287 286 285 283 283 281
52 19 319 315 94 87 60 300 279 251 143 110 91 80 77 60 44 32 5 29 51 53 86 265 264 266 272 289 296 306 333 352 340 316 298 293 291 288 276 255 258 270 277 272 265 257 251 258 261 269 279 290 294 297 299 300 301 302 304 305 305 305 305 304 304 303 302 301 300 300 299 299 299 298 298 297 296 295 293 292 290 289 288 286 285 284
77 28 289 259 146 137 166 213 228 218 157 115 105 104 117 107 94 316 256 204 212 290 286 274 272 275 289 298 302 304 315 323 303 289 290 290 288 284 270 251 258 273 280 279 276 269 261 263 265 270 279 288 293 296 298 300 302 303 305 306 307 307 307 306 305 305 304 304 303 303 303 302 302 301 300 299 297 296 295 293 292 291 289 288 287 285
105 135 239 216 192 178 183 203 215 212 172 141 142 153 162 159 167 186 201 194 204 239 266 275 283 292 302 302 300 298 294 272 251 246 267 279 284 285 278 279 294 292 287 287 290 290 284 277 270 271 277 287 291 295 298 301 303 305 307 308 309 309 309 309 308 308 308 307 306 305 305 304 302 301 300 298 297 296 294 293 292 291 289 288 287 286
112 149 220 210 203 196 192 200 205 204 184 167 166 170 173 171 174 179 183 183 191 222 272 297 306 311 311 308 303 298 288 272 202 156 203 262 274 282 293 317 311 300 291 290 290 291 290 282 273 267 267 281 288 293 298 302 305 308 309 310 311 312 312 312 311 311 310 308 307 306 304 303 302 300 299 297 296 295 294 293 293 292 291 290 288 287
111 154 240 234 228 224 223 232 223 205 187 180 176 174 179 182 180 173 165 165 178 256 306 309 307 304 303 306 303 294 285 296 128 136 178 258 275 284 295 308 304 297 293 291 289 288 289 286 278 269 262 275 286 294 300 304 308 310 312 313 314 314 314 313 312 311 309 308 307 305 304 302 301 300 298 297 297 296 295 295 294 294 293 292 291 290
25 6 346 335 327 320 313 311 307 299 272 243 198 178 175 175 171 161 174 208 242 280 301 297 294 292 293 298 293 287 286 298 209 151 167 251 284 292 296 290 287 288 292 295 294 294 293 290 287 280 271 274 286 295 301 307 311 314 315 315 315 314 313 312 310 309 308 307 306 305 304 302 301 300 299 298 298 298 297 297 297 297 297 296 295 294
5 358 352 347 342 338 333 331 325 318 310 304 291 261 194 151 144 215 257 247 244 267 285 288 289 291 294 289 279 275 280 290 271 192 171 233 280 287 287 284 285 293 299 300 300 298 296 294 292 290 285 276 281 294 306 312 315 317 317 315 314 312 311 309 308 307 306 306 305 305 304 303 302 301 301 300 300 300 300 300 300 300 300 300 298 296
358 353 348 344 339 335 331 328 324 320 316 311 306 301 299 134 162 261 264 260 256 271 274 279 285 290 292 285 278 275 273 273 267 244 162 170 273 276 279 291 304 312 313 308 303 297 292 287 285 283 281 278 281 298 311 318 319 317 314 312 310 309 308 307 306 306 305 305 305 305 304 304 303 303 303 303 303 302 302 303 302 302 302 301 299 296
353 348 342 336 332 330 330 329 325 319 312 309 306 306 317 350 321 258 265 266 272 279 275 277 280 284 288 290 289 286 274 264 265 275 86 59 294 275 281 310 326 330 327 315 308 300 288 274 267 266 273 287 303 314 312 320 317 312 308 306 305 305 305 304 305 305 305 305 305 305 304 304 304 304 304 304 304 304 304 304 303 303 302 299 296 292
348 343 337 330 327 327 328 325 318 312 309 307 306 309 330 41 137 190 217 181 215 265 271 276 278 282 287 294 295 291 280 270 266 267 72 33 321 290 299 323 328 331 340 327 318 311 301 280 258 250 276 310 316 314 309 310 306 301 298 299 299 300 301 302 303 304 304 305 305 305 305 305 305 305 305 305 305 304 304 304 303 302 299 295 290 287
329 327 319 315 316 319 320 313 307 307 310 312 315 321 356 113 148 168 175 166 192 233 254 266 272 276 281 289 292 290 281 274 264 258 65 18 322 293 309 320 319 320 341 339 325 315 309 302 289 277 310 316 313 308 304 299 294 290 287 290 291 293 296 299 301 303 304 304 304 304 304 304 304 304 304 304 303 303 303 303 302 301 296 291 286 282
305 305 298 298 302 307 312 312 313 316 319 322 327 333 6 148 163 167 166 169 182 204 230 249 260 268 270 274 275 275 276 275 278 300 13 351 313 290 302 311 311 311 318 325 313 305 304 304 307 311 314 310 305 301 297 292 288 285 284 285 285 289 294 297 300 302 302 303 303 303 302 302 302 302 302 302 302 302 301 301 301 299 295 289 283 279
306 304 298 302 306 311 315 322 326 326 322 321 320 321 325 306 231 200 185 177 179 187 204 231 254 268 274 273 272 273 277 281 298 314 333 330 314 302 307 310 310 311 311 306 294 285 284 293 301 306 305 302 298 294 291 289 284 281 281 283 284 287 292 295 297 298 297 298 299 299 299 300 299 299 299 299 299 300 300 299 299 297 293 288 282 279
318 314 312 317 322 323 325 331 332 326 318 311 310 313 324 327 325 318 307 215 180 178 182 208 246 270 281 280 278 277 277 281 300 313 325 324 314 306 309 308 308 308 310 303 294 285 279 286 294 300 302 301 297 292 288 286 284 281 275 274 278 284 289 291 292 291 290 292 292 293 293 294 294 294 295 296 296 296 297 297 296 295 294 291 288 285
323 318 317 323 327 330 331 333 332 326 315 303 293 284 281 290 309 324 323 326 291 204 186 212 248 268 276 279 281 281 280 286 302 313 316 314 308 303 302 299 301 303 302 298 295 293 287 289 292 296 300 302 300 295 286 281 279 279 274 269 272 276 281 282 283 285 285 285 284 282 282 283 283 285 288 290 291 292 294 295 296 296 295 294 292 290
323 314 311 313 319 323 326 325 322 315 303 285 268 251 237 223 218 232 251 285 318 324 324 314 297 282 273 274 277 279 283 289 297 302 301 300 296 293 290 288 290 293 293 291 290 290 290 290 291 293 295 297 299 299 296 288 284 283 284 280 277 276 275 274 273 274 278 280 280 279 277 275 275 276 279 285 288 291 293 295 295 295 294 293 291 289
310 300 294 291 290 294 303 302 299 291 282 273 264 251 241 239 265 291 295 311 318 317 311 301 291 282 276 272 271 273 278 284 286 287 286 283 281 279 279 280 281 281 281 283 285 287 288 289 291 291 290 290 293 298 303 305 302 298 292 288 284 280 276 272 267 265 268 272 275 276 277 276 275 276 279 285 289 291 293 294 293 292 291 290 288 287
284 277 276 269 264 261 268 270 269 267 269 284 301 313 310 304 306 306 307 302 297 291 283 278 274 271 271 271 270 270 273 274 274 273 271 267 265 265 269 273 274 272 269 272 276 280 282 285 289 291 290 287 287 291 297 303 304 302 297 293 287 281 276 271 265 261 260 268 274 278 280 280 280 281 282 285 287 288 288 287 286 286 286 286 285 284
250 259 269 264 254 246 239 244 252 265 300 332 337 334 325 315 304 295 288 282 275 269 263 262 263 264 264 266 268 270 271 269 266 262 258 254 252 255 261 266 269 269 265 264 264 267 270 274 279 283 287 290 290 291 293 295 296 297 299 298 293 285 277 273 269 267 268 273 278 281 283 282 281 281 279 279 279 278 278 278 278 279 281 282 283 283
252 268 276 267 257 238 223 236 261 306 345 344 338 333 327 317 307 298 289 285 280 275 267 264 266 267 266 266 267 268 269 266 262 258 254 248 245 247 253 259 264 267 265 262 260 260 261 266 270 274 278 283 287 290 291 290 291 294 298 299 298 294 292 290 285 281 276 273 275 277 281 280 278 276 275 274 273 272 272 274 276 277 277 277 279 281
284 287 270 274 277 278 266 291 333 354 353 344 339 330 323 316 310 306 303 302 300 295 289 282 279 276 273 268 265 263 264 263 260 256 252 246 244 244 247 253 258 262 265 264 262 260 259 263 267 271 273 276 280 282 283 284 287 289 292 291 290 292 295 293 290 286 281 274 270 271 276 281 282 281 279 278 275 271 269 270 272 274 274 269 266 268
289 281 264 270 283 293 305 329 339 343 343 333 318 307 299 299 302 304 307 306 301 294 287 285 283 282 280 274 267 260 255 255 253 251 248 244 241 240 242 246 250 255 259 262 263 261 259 261 264 268 270 273 276 279 280 281 283 284 283 284 288 291 292 289 285 281 280 280 277 277 279 282 283 283 282 280 278 274 271 268 268 268 269 265 260 258
270 258 252 253 263 291 320 328 328 323 313 298 289 285 285 288 292 297 298 295 290 287 283 278 279 282 285 284 280 270 258 248 245 244 244 240 237 235 237 241 243 247 251 258 262 263 262 261 262 264 266 270 272 275 279 282 283 282 280 282 286 291 292 290 290 288 285 284 283 282 280 280 280 279 279 279 278 276 273 270 268 267 266 266 263 259
242 243 243 247 277 317 334 328 316 304 293 288 285 284 283 280 280 282 283 280 279 279 280 278 277 279 281 284 285 283 276 259 247 243 245 241 236 231 232 235 239 241 242 248 257 264 268 266 264 264 266 267 270 272 275 279 281 282 281 280 279 279 278 285 292 294 291 287 284 281 278 278 278 279 279 277 276 274 272 269 266 264 262 260 259 258
245 264 284 313 335 341 334 315 304 295 290 287 283 280 279 273 273 274 271 272 274 276 276 276 278 280 280 282 284 287 288 281 271 262 257 253 249 244 238 235 236 239 239 242 248 255 264 268 270 270 270 268 268 269 272 276 279 280 280 279 277 275 272 278 283 286 287 286 284 282 278 277 279 281 281 278 276 273 270 268 266 264 261 257 254 254
302 335 339 344 341 331 316 304 296 289 283 279 276 273 270 266 265 266 268 269 271 273 274 272 274 278 283 289 293 296 298 296 291 282 270 262 255 249 242 239 238 239 241 244 247 250 254 261 268 273 276 273 270 267 266 271 275 278 280 279 279 278 277 277 278 279 281 282 283 282 279 279 279 279 279 278 276 273 269 265 264 264 263 260 256 253
355 345 341 336 326 313 301 292 286 282 278 276 273 270 269 266 265 265 265 264 267 272 278 277 278 281 285 290 293 296 296 296 294 289 281 270 262 254 248 246 243 243 244 247 249 251 253 256 260 266 272 274 273 272 269 269 272 275 278 280 280 280 278 278 278 278 278 278 279 280 281 281 279 277 276 276 277 275 272 268 266 265 266 266 264 262
342 335 327 319 309 298 290 284 281 278 277 276 274 272 268 267 268 269 267 263 270 281 290 291 288 286 284 284 284 284 286 288 289 290 289 283 276 268 258 255 252 250 250 251 253 254 255 254 255 256 260 265 270 272 273 272 271 272 275 277 278 278 277 277 277 277 276 275 274 274 274 275 275 276 277 278 278 277 277 275 273 271 271 272 271 270
329 317 309 303 295 289 284 282 280 279 278 278 277 275 269 269 273 276 276 274 277 282 286 287 285 283 281 280 279 279 280 282 284 286 286 285 283 280 274 271 269 267 264 260 257 256 257 254 250 247 247 252 258 265 271 271 271 270 271 272 274 274 276 276 276 276 275 274 271 269 267 267 268 270 275 277 279 279 281 281 281 278 275 273 271 270
304 295 294 290 286 283 281 281 281 280 280 281 281 280 276 270 267 267 267 268 269 271 273 276 278 280 281 281 280 279 278 279 280 281 281 283 285 286 286 284 284 284 282 277 272 269 267 262 253 245 240 242 247 255 264 268 270 270 269 268 269 270 273 275 276 276 275 275 273 271 268 267 268 270 273 278 281 283 285 284 283 281 277 274 270 267
299 290 285 282 279 278 277 276 277 278 279 281 281 281 281 277 270 264 259 262 266 269 272 273 275 276 278 279 280 279 278 279 280 281 281 283 286 288 288 288 290 291 291 290 289 288 286 284 277 265 251 245 245 248 257 264 269 272 272 269 268 270 273 275 277 277 277 278 278 278 277 277 277 277 278 282 284 285 285 284 282 280 278 274 271 268